TimeEST,TemperatureF,Dew PointF,Humidity,Sea Level PressureIn,VisibilityMPH,Wind Direction,Wind SpeedMPH,Gust SpeedMPH,PrecipitationIn,Events,Conditions,WindDirDegrees,DateUTC
12:53 AM,30.9,19.0,61,30.13,10.0,Calm,Calm,-,N/A,,Clear,0,2013-12-19 05:53:00
1:53 AM,32.0,17.1,54,30.11,10.0,Calm,Calm,-,N/A,,Clear,0,2013-12-19 06:53:00
2:53 AM,32.0,15.1,50,30.11,10.0,Calm,Calm,-,N/A,,Clear,0,2013-12-19 07:53:00
3:53 AM,30.0,15.1,54,30.11,10.0,Calm,Calm,-,N/A,,Clear,0,2013-12-19 08:53:00
4:53 AM,30.0,17.1,59,30.12,10.0,Calm,Calm,-,N/A,,Clear,0,2013-12-19 09:53:00
5:53 AM,35.1,18.0,50,30.14,10.0,SSW,3.5,-,N/A,,Clear,200,2013-12-19 10:53:00
6:53 AM,37.9,21.0,51,30.15,10.0,South,5.8,-,N/A,,Clear,190,2013-12-19 11:53:00
7:53 AM,42.1,21.9,45,30.16,10.0,SSW,8.1,-,N/A,,Clear,210,2013-12-19 12:53:00
8:53 AM,46.9,21.0,36,30.17,10.0,SW,13.8,25.3,N/A,,Clear,230,2013-12-19 13:53:00
9:53 AM,50.0,21.0,32,30.16,10.0,SW,13.8,24.2,N/A,,Clear,220,2013-12-19 14:53:00
10:53 AM,52.0,23.0,32,30.17,10.0,WSW,16.1,26.5,N/A,,Clear,250,2013-12-19 15:53:00
11:53 AM,55.0,26.1,33,30.14,10.0,WSW,12.7,24.2,N/A,,Clear,240,2013-12-19 16:53:00
12:53 PM,55.9,30.0,37,30.10,10.0,WSW,12.7,27.6,N/A,,Clear,240,2013-12-19 17:53:00
1:53 PM,57.0,30.9,37,30.08,10.0,SW,17.3,27.6,N/A,,Clear,230,2013-12-19 18:53:00
2:53 PM,57.0,28.0,33,30.07,10.0,WSW,20.7,28.8,N/A,,Clear,250,2013-12-19 19:53:00
3:53 PM,55.0,26.1,33,30.09,10.0,WSW,11.5,-,N/A,,Clear,240,2013-12-19 20:53:00
4:53 PM,51.1,25.0,36,30.10,10.0,SW,4.6,-,N/A,,Clear,230,2013-12-19 21:53:00
5:53 PM,50.0,24.1,36,30.10,10.0,SSW,6.9,-,N/A,,Clear,200,2013-12-19 22:53:00
6:53 PM,48.0,24.1,39,30.09,10.0,South,6.9,-,N/A,,Clear,190,2013-12-19 23:53:00
7:53 PM,46.9,21.9,37,30.08,10.0,South,3.5,-,N/A,,Clear,190,2013-12-20 00:53:00
8:53 PM,46.9,21.9,37,30.06,10.0,South,3.5,-,N/A,,Clear,170,2013-12-20 01:53:00
9:53 PM,45.0,23.0,42,30.06,10.0,South,4.6,-,N/A,,Clear,190,2013-12-20 02:53:00
10:53 PM,46.0,23.0,40,30.04,10.0,South,3.5,-,N/A,,Clear,170,2013-12-20 03:53:00
11:53 PM,50.0,21.9,33,30.04,10.0,South,5.8,-,N/A,,Clear,190,2013-12-20 04:53:00